Regional Weather Roundup
Issued by NWS

Home | Current Version | Previous Version | Text Only | Print | Product List | Glossary On
Versions: 1 2 3 4 5 6 7 8 9 10 11 12 13 14 15 16 17 18 19 20 21 22 23 24 25 26 27 28 29 30 31 32 33 34 35 36 37 38 39 40 41 42 43 44 45 46 47 48 49 50
000
ASHW40 PHFO 171043
RWRHI

WEATHER ROUNDUP FOR HAWAII
NATIONAL WEATHER SERVICE HONOLULU HI
1200 AM HST SUN DEC 17 2017

THIS IS AN AUTOMATED REPORT THAT HAS NOT BEEN QUALITY CONTROLLED.

NOTE..."FAIR" INDICATES FEW OR NO CLOUDS BELOW 12,000 FEET WITH NO
SIGNIFICANT WEATHER AND/OR OBSTRUCTIONS TO VISIBILITY.

* - THESE SITES REPORT LIMITED FIELDS
# - BUOY DATA PROVIDED BY PACIFIC ISLANDS OCEAN OBSERVING SYSTEM.

HIZ001>004-171100-
KAUAI-NIIHAU-

CITY           SKY/WX    TMP DP  RH WIND       PRES   REMARKS
LIHUE APT      CLEAR     60  60 100 W7        29.88F
PORT ALLEN*      N/A     63 N/A N/A NE7         N/A
POIPU*           N/A     61 N/A N/A N3          N/A
PRINCEVILLE*   NOT AVBL
KOKOLE POINT*  NOT AVBL
MOLOAA DAIRY*    N/A    N/A N/A N/A SW1         N/A
WAIMEA HTS*      N/A     66  57  72 N5          N/A
PUU OPAE*        N/A     57  54  88 E3          N/A
PUU LUA*       NOT AVBL
MAKAHA RIDGE*    N/A     59  57  94 S3          N/A
$$

HIZ005>011-171100-
OAHU-

CITY           SKY/WX    TMP DP  RH WIND       PRES   REMARKS
HONOLULU       PTCLDY    71  63  75 N5        29.88F
KALAELOA       PTCLDY    66  64  93 NE3       29.89F
KANEOHE MCB    PTCLDY    70  65  84 CALM      29.85F
WHEELER FIELD  NOT AVBL
BELLOWS*         N/A    N/A N/A N/A SW2         N/A
KAHUKU*          N/A    N/A N/A N/A NE1         N/A
WHEELER*         N/A    N/A N/A N/A CALM        N/A
WAIANAE HARBOR   N/A    N/A N/A N/A NE5         N/A
DILLINGHAM*    NOT AVBL
KAHUKU TRN*      N/A     77  72  83 N7          N/A
KAWAILOA*        N/A     64  63  94 SE3G10      N/A
KII*             N/A     66  63  88 S2          N/A
MAKUA RANGE*     N/A     64  57  77 NW3         N/A
OAHU FOREST NW   N/A    N/A N/A N/A S6          N/A
SCHOFIELD BRK*   N/A     57  55  94 MISG        N/A
SCHOFIELD S*   NOT AVBL
WAIANAE VLY*   NOT AVBL
KUAOKALA*        N/A     68  63  83 S12         N/A
HONOULIUULI*   NOT AVBL
MOKUOLOE IS*   NOT AVBL
PALEHUA*         N/A    N/A N/A N/A S3          N/A
WAIAWA PHB*    NOT AVBL
$$

HIZ012>013-171100-
MOLOKAI-

CITY           SKY/WX    TMP DP  RH WIND       PRES   REMARKS
MOLOKAI AIRPT  PTCLDY    67  63  87 E7        29.90F
KALAUPAPA      NOT AVBL
MAKAPULAPAI*     N/A     64  61  88 SE3         N/A
MOLOKAI 1*     NOT AVBL
PUU ALII*        N/A     50  50  99 NE2         N/A
$$

HIZ016-171100-
KAHOOLAWE-

CITY           SKY/WX    TMP DP  RH WIND       PRES   REMARKS
KAHOOLAWE*     NOT AVBL
HAKIOAWA*        N/A     64  63  95 MISG      30.31F
HONOKANAIA*    NOT AVBL
KANELOA*         N/A     66  63  88 W2        29.97S
KEALIALALO*    NOT AVBL
LUA MAKIKA*    NOT AVBL
$$

HIZ014>015-171100-
LANAI-

CITY           SKY/WX    TMP DP  RH WIND       PRES   REMARKS
LANAI CITY     FAIR      61  59  93 E7        29.95S
LANAI 1*       NOT AVBL
$$

HIZ017>028-171100-
MAUI-

CITY           SKY/WX    TMP DP  RH WIND       PRES   REMARKS
KAHULUI        CLEAR     65  63  93 SE6       29.89S
KAPALUA-W MAUI NOT AVBL
HANA AIRPORT   CLOUDY    63  63 100 CALM      29.92S
HANA*            N/A     64 N/A N/A S3          N/A
HALEAKALA SUMM   N/A     39  39 100 S12         N/A
MAALAEA BAY*     N/A     64 N/A N/A N5          N/A
HALEAKALA*     NOT AVBL
KAUPO GAP*     NOT AVBL
KULA 1*          N/A     50  47  88 S15G26      N/A
$$

HIZ023>026-171100-
BIG ISLAND OF HAWAII COAST AND LOWER SLOPES-

CITY           SKY/WX    TMP DP  RH WIND       PRES   REMARKS
KAILUA KONA    CLOUDY    73  62  68 SE5       29.89S
HILO           CLOUDY    66  64  94 CALM      29.91R
HONOKAA*         N/A     61 N/A N/A VRB1        N/A
KAWAIHAE MWT*    N/A     75 N/A N/A N1          N/A
KAWAIHAE*        N/A     75 N/A N/A NE1       29.90S
SOUTH POINT*     N/A     66 N/A N/A NW6         N/A
UPOLU AIRPORT* NOT AVBL
KAMUELA*       NOT AVBL
HAKALAU*         N/A     46  45  93 W3G14       N/A
KALOKO-HONOKO*   N/A     70  63  78 NE5       29.88S
PALI 2*          N/A     61  55  82 E3          N/A
KEALAKOMO*       N/A     72  64  78 NW3         N/A
KAUPULEHU*       N/A     68  61  77 E3          N/A
KAPAPALA*        N/A     59  58  97 N3          N/A
LOWER KAHUKU*    N/A     61  57  88 N2          N/A
PUHE CS*         N/A     73  59  60 E1          N/A
PUHO CS*         N/A     67  62  84 NE3         N/A
PTA KEAMUKU*     N/A     57  55  94 E3          N/A
WAIKOLOA*        N/A     64  61  88 E3          N/A
$$

HIZ027>028-171100-
BIG ISLAND OF HAWAII INTERIOR AND SUMMMITS-

CITY           SKY/WX    TMP DP  RH WIND       PRES   REMARKS
BRADSHAW FIELD CLEAR     51  46  84 W12G21    30.18R
MK VISITOR CEN   N/A     46   5  18 NW20G32     N/A
MAUNA KEA*       N/A     21   1  42 SW55        N/A  WCI  -2
MAUNA LOA*       N/A     37   3  23 MISG        N/A
MAUNA LOA 1*   NOT AVBL
PTA KIPUKA*    NOT AVBL
PTA RANGE 17*    N/A     50  46  87 E5G12       N/A
PTA WEST*        N/A     64  64 100 SW2G8       N/A
NENE CABIN*      N/A     48  48 100 NW5G12      N/A
AHUMOA*          N/A     48  48 100 S12G21      N/A
PTA PORTABLE*  NOT AVBL
PUU MALI*        N/A     46 N/A N/A SW5G10      N/A
$$

HIC003-171100-
NORTHWEST ISLANDS-

CITY           SKY/WX    TMP DP  RH WIND       PRES   REMARKS
MIDWAY ISLAND  CLOUDY    66  57  72 NE22G30   30.23R
MIDWAY NOS*      N/A     68 N/A N/A MISG      30.20R
FRENCH FRIGATE NOT AVBL
$$

PHZ110>124-180-171100-
BUOY REPORTS

STATION/POSITION TIME  TEMP    WIND        PRES    WAVE   SWELL
                       AIR SEA DIR/SP/G            HT/PER HT/DIR
                 (UTC) (F)     (DEG/KT/KT) (MB)    (FT/S) (FT/D)
BUOY 51001       1020   72 76   40/ 12/ 16 1012.2
BUOY 51101       0950   72 74   50/ 10/ 12 1012.8F   8/10   8/ 70
BUOY 51100       NOT AVBL
BUOY 51002       1020   76 78   40/  8/ 10 1011.3
BUOY 51003       0950   74 77  140/  2/  4 1012.0R   7/10   7/ 30
BUOY 51004       1020   78 78  120/ 12/ 14 1011.7
WAIMEA BAY#      1002      74                N/A     7/11   3/ 20
MOKAPU POINT#    1004      76                N/A     7/10   3/ 10
LANAI#           NOT AVBL
BARBERS PT 2#    NOT AVBL
PAUWELA#         1000      77                N/A     8/11   3/ 40
HILO#            1027      77                N/A     8/ 9   3/ 60
KANEOHE BAY#     NOT AVBL
KANEOHE BAY 2#   NOT AVBL
HANALEI#         1022      76                N/A     8/10   3
KAHULUI HARBOR   1012   68 74  200/  3/  4 1012.1
HONOLULU HARBOR  1018   70 77   70/  2/  3 1012.4
PEARL HARBOR#    1000      78                N/A     2/ 9
KILO NALU        NOT AVBL
HILO HARBOR      1012   68 76  190/  3/  4 1012.4
MOKUOLOE         0936   69 74  100/  3/  3 1011.7F
NAWILIWILI       1012   62 76  260/  5/  6 1011.8
WHOTS BUOY       NOT AVBL
BUOY 51028       NOT AVBL
$$

......................KEY........................................
  SKY/WX - SKY CONDITIONS/PRESENT WEATHER
  TMP    - TEMPERATURE IN FAHRENHEIT
  DWPT   - DEWPOINT IN FAHRENHEIT
  RH     - RELATIVE HUMIDITY IN PERCENT
  WIND   - DIRECTION AND SPEED /MPH FOR ISLANDS...KTS FOR BUOYS/
  PRES   - MEAN SEA LEVEL PRESSURE IN INCHES OF HG
  VSB    - VISIBILITY IN MILES
  HX     - HEAT INDEX
  WCI    - WIND CHILL INDEX
  VRB    - VARIABLE WIND DIRECTION
  N/A    - NOT AVAILABLE



USA.gov is the U.S. government's official web portal to all federal, state and local government web resources and services.